Tracking 17140 objects as of 30-May-2015
HD Live streaming from Space Station

SL-14 R/B

Track SL-14 R/B now!
10-day predictions
SL-14 R/B is classified as:


NORAD ID: 15370
Int'l Code: 1984-111B
Perigee: 611.0 km
Apogee: 640.5 km
Inclination: 82.5 °
Period: 97.1 minutes
Semi major axis: 6996 km
RCS: 4.088 m2 (large)
Launch date: October 18, 1984
Source: Commonwealth of Independent States (former USSR) (CIS)

Note: This is a ROCKET BODY
Your satellite tracking list
Your tracking list is empty





NASA's NSSDC Master Catalog

Two Line Element Set (TLE):
1 15370U 84111B   15150.51172579  .00000217  00000-0  23459-4 0  9997
2 15370 082.5157 349.2384 0021124 007.2974 352.8544 14.83401880653178

Source of the keplerian elements: AFSPC

N2YO: 296